Flag for China Weather past 2 weeks in Tsingtao, Shandong, China

Now
48 °F

Light rain. Fog.


Feels Like: 42 °F
Forecast: 49 / 53 °F
Wind: 15 mph from Northeast

Location: Qingdao Airport

Current Time: Apr 1, 2015 at 5:29:27 AM

Latest Report: Apr 1, 2015 at 4:00 AM


Visibility: 3 mi

Pressure: 30.01 "Hg

Humidity: 94%

Dew point: 46 °F

Location of TsingtaoLocation

Historic Weather in Tsingtao — Graph

°F

Tsingtao temperature yesterday

Maximum temperature yesterday: 68 °F (at 4:00 PM)
Minimum temperature yesterday: 54 °F (at 12:00 AM)
Average temperature yesterday: 59 °F

Past Weeks' High & Low Weather Summary

 TemperatureHumidityPressure
High70 °F (Mar 21, 12:00 PM)94% (Mar 17, 5:00 AM)30.54 "Hg (Mar 17, 5:00 AM)
Low36 °F (Mar 23, 6:00 AM)7% (Mar 21, 3:00 PM)29.80 "Hg (Mar 31, 2:00 PM)
Average52 °F50%30.16 "Hg
* Reported Mar 17 4:00 AM — Apr 1 4:00 AM, Tsingtao, Weather by CustomWeather, © 2015

Note: Actual official high and low records may vary slightly from our data, if they occured in-between our weather recording intervals... More about our weather records

Advertising

Tsingtao weather history for previous 24 hours

 ConditionsComfort  
Time TempWeatherWind HumidityBarometerVisibility
4:00 AM
Wed, Apr 1
48 °FLight rain. Fog.15 mph94%30.01 "Hg3 mi
3:00 AM50 °FLight rain. Mostly cloudy.13 mph88%30.01 "Hg4 mi
2:00 AM50 °FLight rain. Mostly cloudy.13 mph88%29.98 "HgN/A
1:00 AM50 °FLight rain. Fog.13 mph88%30.01 "Hg3 mi
12:00 AM52 °FPassing clouds.15 mph82%30.01 "Hg4 mi
11:00 PM
Tue, Mar 31
54 °FPassing clouds.13 mph77%29.98 "Hg4 mi
10:00 PM54 °FPassing clouds.10 mph77%29.95 "Hg4 mi
9:00 PM57 °FClear.13 mph82%29.92 "Hg10 mi
8:00 PM57 °FPassing clouds.6 mph82%29.89 "HgN/A
7:00 PM59 °FPassing clouds.6 mph77%29.89 "HgN/A
6:00 PM63 °FScattered clouds.6 mph68%29.83 "Hg5 mi
5:00 PM66 °FPartly sunny.3 mph64%29.83 "HgN/A
4:00 PM68 °FBroken clouds.1 mph60%29.80 "Hg4 mi
3:00 PM63 °FScattered clouds.6 mph73%29.80 "Hg4 mi
2:00 PM66 °FPartly sunny.8 mph68%29.80 "Hg4 mi
1:00 PM66 °FScattered clouds.3 mph64%29.83 "Hg3 mi
12:00 PM61 °FFog.3 mph77%29.86 "Hg2 mi
11:00 AM61 °FFog.3 mph77%29.86 "Hg2 mi
10:00 AM61 °FFog.1 mph77%29.89 "Hg2 mi
9:00 AM59 °FFog.3 mph82%29.89 "Hg2 mi
8:00 AM59 °FFog.6 mph88%29.86 "Hg2 mi
7:00 AM57 °FFog.1 mph88%29.86 "Hg2 mi
6:00 AM55 °FFog.3 mph88%29.86 "Hg2 mi
5:00 AM55 °FFog.No wind88%29.86 "Hg3 mi
Weather by CustomWeather, © 2015

See weather overviewHow to use our weather pages